Flag for Burkina Faso Weather past 2 weeks in Koudougou, Burkina Faso

Now
72 °F

Light rain. Broken clouds.


Feels Like: 67 °F
Forecast: 71 / 85 °F
Wind: 3 mph from North

Location: Ouagadougou Airport

Current Time: Sep 2, 2014 at 7:36:01 AM

Latest Report: Sep 2, 2014 at 7:00 AM


Visibility: 4 mi

Pressure: 29.95 "Hg

Humidity: 94%

Dew point: 70 °F

Location of KoudougouLocation

Historic Weather in Koudougou — Graph

°F

Koudougou temperature yesterday

Maximum temperature yesterday: 88 °F (at 12:00 PM)
Minimum temperature yesterday: 70 °F (at 3:00 AM)
Average temperature yesterday: 78 °F

Past Weeks' High & Low Weather Summary

 TemperatureHumidityPressure
High99 °F (Aug 23, 11:00 AM)100% (Aug 19, 1:00 AM)30.04 "Hg (Aug 19, 1:00 AM)
Low70 °F (Aug 19, 9:00 PM)42% (Aug 23, 11:00 AM)29.80 "Hg (Aug 29, 3:00 PM)
Average81 °F79%29.93 "Hg
* Reported Aug 18 7:00 AM — Sep 2 6:00 AM, Koudougou, Weather by CustomWeather, © 2014

Note: Actual official high and low records may vary slightly from our data, if they occured in-between our weather recording intervals... More about our weather records

Advertising

Koudougou weather history for previous 24 hours

 ConditionsComfort  
Time TempWeatherWind HumidityBarometerVisibility
6:00 AM
Sep 2
73 °FLight rain. Broken clouds.2 mph94%29.92 "Hg5 mi
5:00 AM72 °FThunderstorms. Overcast.5 mph100%29.92 "Hg5 mi
4:00 AM72 °FThunderstorms. Overcast.3 mph100%29.89 "Hg5 mi
1:00 AM73 °FThunderstorms. Passing clouds.3 mph94%29.92 "HgN/A
12:00 AM73 °FThunderstorms. Passing clouds.1 mph94%29.92 "Hg5 mi
11:00 PM
Sep 1
73 °FThunderstorms. Partly cloudy.7 mph94%29.98 "Hg4 mi
10:00 PM73 °FThunderstorms. Partly cloudy.7 mph94%30.04 "Hg2 mi
9:00 PM73 °FThunderstorms. Partly cloudy.3 mph89%29.95 "Hg5 mi
7:00 PM79 °FThunderstorms. Partly cloudy.14 mph74%29.92 "HgN/A
6:00 PM82 °FThunderstorms. Broken clouds.7 mph74%29.86 "HgN/A
5:00 PM84 °FBroken clouds.7 mph74%29.86 "HgN/A
4:00 PM86 °FBroken clouds.8 mph70%29.86 "HgN/A
3:00 PM86 °FBroken clouds.9 mph66%29.86 "HgN/A
2:00 PM86 °FPartly sunny.7 mph70%29.89 "HgN/A
1:00 PM86 °FPartly sunny.5 mph66%29.92 "HgN/A
12:00 PM88 °FPartly sunny.1 mph62%29.95 "Hg5 mi
11:00 AM84 °FPartly sunny.2 mph74%29.95 "Hg5 mi
10:00 AM77 °FThunderstorms. Partly sunny.3 mph89%29.98 "Hg5 mi
9:00 AM75 °FThunderstorms. Partly sunny.3 mph94%29.98 "Hg5 mi
8:00 AM73 °FThunderstorms. Partly sunny.2 mph94%29.95 "Hg5 mi
7:00 AM72 °FThunderstorms. Partly sunny.3 mph100%29.95 "Hg5 mi
Weather by CustomWeather, © 2014

See weather overviewHow to use our weather pages